F06AC378 Weather Reports


time (UTC)temp
C
wind
direction
speed
KPH
gust
KPH
rain 1hr
cm
rain 24hr
cm
rain mn
cm
humidity
%
barometer
mb
20260505102035 7 0 0.0 6.4 0.00 0.41 0.36 88 1013.0
20260505101546 7 143 1.6 4.8 0.00 0.41 0.36 88 1013.0
20260505101036 7 143 1.6 8.0 0.00 0.41 0.36 88 1013.0
20260505100536 8 143 0.0 8.0 0.00 0.41 0.36 90 1013.0
20260505100044 8 143 1.6 8.0 0.00 0.41 0.36 90 1013.0
20260505095535 8 138 0.0 4.8 0.00 0.41 0.36 90 1013.0
20260505095039 8 138 0.0 4.8 0.00 0.41 0.36 90 1013.1
20260505094550 7 0 0.0 4.8 0.00 0.41 0.36 91 1013.0
20260505094035 7 0 1.6 4.8 0.00 0.41 0.36 91 1013.1
20260505093535 7 0 0.0 3.2 0.00 0.41 0.36 90 1013.1
20260505093050 7 0 0.0 4.8 0.00 0.41 0.36 90 1013.1
20260505092538 7 0 0.0 4.8 0.00 0.41 0.36 90 1013.0
20260505092036 7 0 0.0 4.8 0.00 0.41 0.36 89 1013.0
20260505091550 7 0 0.0 3.2 0.00 0.41 0.36 90 1013.1
20260505091035 7 0 0.0 3.2 0.00 0.41 0.36 90 1013.1
20260505090535 7 0 0.0 3.2 0.00 0.41 0.36 91 1013.1
20260505090100 7 0 0.0 3.2 0.00 0.41 0.36 91 1013.1
20260505085536 7 0 0.0 1.6 0.00 0.41 0.36 91 1013.1
20260505085036 7 0 0.0 1.6 0.00 0.41 0.36 92 1013.1
20260505084542 7 0 0.0 1.6 0.00 0.41 0.36 92 1013.1
20260505084039 7 0 0.0 3.2 0.00 0.41 0.36 92 1013.1
20260505083538 6 0 0.0 3.2 0.00 0.41 0.36 92 1013.1
20260505083056 6 138 0.0 3.2 0.00 0.41 0.36 93 1013.1
20260505082536 6 0 0.0 3.2 0.00 0.41 0.36 92 1013.0
20260505082036 6 0 0.0 4.8 0.00 0.41 0.36 93 1013.1
20260505081548 6 0 0.0 6.4 0.00 0.41 0.36 93 1013.0
20260505081036 6 0 1.6 6.4 0.00 0.41 0.36 94 1013.1
20260505080535 6 0 0.0 3.2 0.00 0.41 0.36 93 1013.1
20260505080051 6 109 0.0 3.2 0.00 0.41 0.36 94 1013.2
20260505075535 6 0 0.0 3.2 0.00 0.41 0.36 93 1013.2
20260505075035 6 0 0.0 3.2 0.00 0.41 0.36 94 1013.3
20260505074541 6 0 0.0 3.2 0.00 0.38 0.36 93 1013.2
20260505074038 6 109 0.0 3.2 0.00 0.38 0.36 93 1013.3
20260505073539 6 0 0.0 3.2 0.00 0.38 0.36 93 1013.4
20260505073056 6 109 0.0 3.2 0.00 0.38 0.36 93 1013.5
20260505072540 6 0 0.0 3.2 0.00 0.38 0.36 93 1013.4
20260505072036 6 0 0.0 1.6 0.00 0.38 0.36 93 1013.4
20260505071544 6 109 0.0 3.2 0.00 0.38 0.36 93 1013.6
20260505071036 6 0 0.0 3.2 0.00 0.38 0.36 93 1013.5
20260505070536 6 0 0.0 3.2 0.00 0.38 0.36 93 1013.6
20260505070052 6 0 0.0 3.2 0.00 0.38 0.36 93 1013.6
20260505065535 6 0 0.0 3.2 0.00 0.38 0.36 93 1013.6
20260505065036 6 109 0.0 3.2 0.03 0.38 0.36 93 1013.6
20260505064543 6 0 0.0 3.2 0.03 0.38 0.36 93 1013.6
20260505064035 6 0 0.0 3.2 0.05 0.38 0.36 93 1013.6
20260505063535 6 0 0.0 3.2 0.08 0.38 0.36 93 1013.5
20260505063053 6 0 0.0 3.2 0.08 0.38 0.36 93 1013.5
20260505062536 6 0 0.0 3.2 0.10 0.38 0.36 93 1013.5
20260505062035 6 109 0.0 3.2 0.13 0.38 0.36 94 1013.6
20260505061550 6 0 0.0 3.2 0.15 0.38 0.36 94 1013.7
20260505061036 6 0 0.0 1.6 0.15 0.38 0.36 94 1013.6
20260505060536 6 0 0.0 3.2 0.18 0.38 0.36 93 1013.7
20260505060046 6 0 0.0 3.2 0.18 0.38 0.36 93 1013.8
20260505055537 6 0 0.0 3.2 0.15 0.36 0.33 93 1013.8
20260505055038 6 0 0.0 3.2 0.15 0.36 0.30 93 1013.8
20260505054551 6 109 0.0 3.2 0.15 0.36 0.30 93 1013.8
20260505054036 6 0 0.0 3.2 0.15 0.33 0.28 93 1013.8
20260505053538 6 0 0.0 3.2 0.13 0.30 0.28 93 1013.7
20260505053045 6 0 0.0 3.2 0.10 0.28 0.25 93 1013.6
20260505052536 6 0 0.0 3.2 0.10 0.28 0.23 93 1013.7
20260505052036 6 0 0.0 0.0 0.08 0.25 0.20 93 1013.6
20260505051546 6 0 0.0 1.6 0.08 0.23 0.18 93 1013.7
20260505051035 6 0 0.0 1.6 0.08 0.23 0.18 93 1013.7
20260505050536 6 0 0.0 0.0 0.08 0.20 0.18 93 1013.6
20260505050122 6 0 0.0 0.0 0.08 0.20 0.18 93 1013.6
20260505041601 6 0 0.0 1.6 0.08 0.15 0.10 93 1013.9
20260505041035 6 0 0.0 1.6 0.08 0.13 0.08 93 1013.8
20260505040535 6 0 0.0 1.6 0.08 0.13 0.08 92 1013.8
20260505040052 6 0 0.0 1.6 0.08 0.13 0.08 92 1013.9
20260505035535 6 109 0.0 1.6 0.05 0.10 0.08 92 1013.9
20260505035035 6 0 0.0 3.2 0.05 0.10 0.08 92 1014.0
20260505034541 6 0 0.0 3.2 0.03 0.08 0.05 92 1013.9
20260505034036 6 0 0.0 3.2 0.03 0.08 0.05 92 1014.0
20260505033536 6 0 0.0 0.0 0.00 0.08 0.03 92 1013.9
20260505033046 6 0 0.0 0.0 0.00 0.08 0.03 91 1013.8
20260505032536 6 0 0.0 0.0 0.00 0.08 0.03 91 1013.8
20260505032035 6 0 0.0 0.0 0.00 0.05 0.00 91 1013.8
20260505031546 6 0 0.0 0.0 0.00 0.05 0.00 91 1013.9
20260505031036 6 0 0.0 0.0 0.00 0.05 0.00 91 1013.8
20260505030536 6 0 0.0 3.2 0.00 0.05 0.00 91 1013.8
20260505030049 6 0 0.0 3.2 0.00 0.05 0.00 91 1013.7
20260505025535 6 109 0.0 1.6 0.00 0.05 0.00 91 1013.8
20260505025036 6 0 0.0 1.6 0.00 0.05 0.00 91 1014.0
20260505024546 6 0 0.0 1.6 0.00 0.05 0.00 91 1014.0
20260505024036 6 0 0.0 1.6 0.00 0.05 0.00 91 1014.1
20260505023539 6 0 0.0 3.2 0.00 0.05 0.00 90 1014.2
20260505023045 6 0 0.0 3.2 0.00 0.05 0.00 90 1014.2
20260505022537 6 0 0.0 3.2 0.00 0.05 0.00 90 1014.3
20260505022037 6 109 0.0 3.2 0.00 0.05 0.00 90 1014.4
20260505021543 6 0 0.0 3.2 0.00 0.05 0.00 90 1014.6
20260505021035 6 0 0.0 3.2 0.00 0.05 0.00 89 1014.6
20260505020535 6 0 0.0 3.2 0.00 0.05 0.00 89 1014.7
20260505020041 6 0 0.0 1.6 0.00 0.05 0.00 89 1014.7
20260505015536 6 0 0.0 1.6 0.00 0.05 0.00 89 1014.7
20260505015036 6 0 0.0 3.2 0.00 0.05 0.00 88 1014.8
20260505014603 6 0 0.0 3.2 0.00 0.03 0.00 88 1015.0
20260505014040 6 0 0.0 3.2 0.00 0.03 0.00 88 1015.0
20260505013536 6 0 0.0 1.6 0.00 0.03 0.00 88 1015.1
20260505013045 7 0 0.0 3.2 0.00 0.03 0.00 88 1015.0
20260505012536 7 0 0.0 3.2 0.00 0.03 0.00 88 1015.1
20260505012036 7 0 0.0 3.2 0.00 0.03 0.00 88 1015.2
20260505011543 7 0 0.0 3.2 0.00 0.03 0.00 88 1015.2
20260505011036 7 109 0.0 3.2 0.00 0.03 0.00 87 1015.4
20260505010535 7 109 0.0 3.2 0.00 0.03 0.00 87 1015.4
20260505010042 7 0 0.0 1.6 0.00 0.03 0.00 87 1015.4
20260505005536 7 0 0.0 1.6 0.00 0.03 0.00 87 1015.5
20260505005036 7 0 0.0 1.6 0.00 0.03 0.00 87 1015.6
20260505004544 7 0 0.0 3.2 0.00 0.03 0.00 86 1015.7
20260505004035 7 0 0.0 4.8 0.00 0.03 0.00 86 1015.8
20260505003538 7 109 1.6 4.8 0.00 0.03 0.00 86 1016.0
20260505003040 7 0 0.0 1.6 0.00 0.03 0.00 85 1015.9
20260505002540 7 0 0.0 1.6 0.00 0.03 0.00 85 1016.0
20260505002036 7 0 0.0 1.6 0.00 0.03 0.00 86 1016.0
20260505001553 7 109 0.0 1.6 0.00 0.03 0.00 87 1016.2
20260505001037 7 0 0.0 1.6 0.00 0.03 0.00 86 1016.2
20260505000537 7 0 0.0 3.2 0.00 0.03 0.00 86 1016.4
20260505000103 7 0 0.0 3.2 0.00 0.03 0.00 86 1016.5
20260504235536 7 0 0.0 4.8 0.00 0.03 0.00 86 1016.5
20260504235037 7 0 0.0 4.8 0.00 0.03 0.00 86 1016.6
20260504234606 7 0 0.0 3.2 0.00 0.03 0.00 86 1016.7
20260504234035 7 0 0.0 1.6 0.00 0.03 0.00 86 1016.8
20260504233536 7 0 0.0 3.2 0.00 0.03 0.00 86 1016.8
20260504233102 7 0 0.0 3.2 0.00 0.03 0.00 86 1016.9
20260504232537 7 0 0.0 3.2 0.00 0.03 0.00 85 1017.0
20260504232036 7 109 0.0 6.4 0.00 0.03 0.00 85 1017.1
20260504231545 7 0 0.0 6.4 0.00 0.03 0.00 85 1017.1
20260504231036 7 131 1.6 6.4 0.00 0.03 0.00 84 1017.2
20260504230536 7 131 1.6 11.3 0.00 0.03 0.00 82 1017.2
20260504230046 7 0 1.6 11.3 0.00 0.03 0.00 80 1017.2
20260504225538 7 0 0.0 3.2 0.00 0.03 0.00 85 1017.5
20260504225035 7 0 0.0 3.2 0.00 0.03 0.00 86 1017.5
20260504224555 7 0 0.0 1.6 0.00 0.03 0.00 86 1017.6
20260504224036 7 65 0.0 3.2 0.00 0.03 0.00 86 1017.6
20260504223537 7 0 0.0 3.2 0.00 0.03 0.00 86 1017.7
20260504223045 7 0 0.0 3.2 0.00 0.03 0.00 86 1017.7
20260504222536 7 0 0.0 4.8 0.00 0.03 0.00 85 1017.8
20260504222036 7 0 0.0 4.8 0.00 0.03 0.00 85 1017.8
20260504221542 7 0 0.0 3.2 0.00 0.03 0.00 85 1017.8
20260504221035 7 0 0.0 1.6 0.00 0.03 0.00 85 1017.7
20260504220540 7 0 0.0 4.8 0.00 0.03 0.00 84 1017.9
20260504220041 7 0 0.0 4.8 0.00 0.03 0.00 84 1017.8
20260504215536 7 24 0.0 3.2 0.00 0.03 0.03 85 1017.8
20260504215036 7 0 0.0 1.6 0.00 0.03 0.03 85 1017.8
20260504214544 7 0 0.0 1.6 0.00 0.03 0.03 85 1017.9
20260504214036 7 0 0.0 3.2 0.00 0.03 0.03 85 1018.0
20260504213536 7 0 0.0 4.8 0.00 0.03 0.03 86 1018.1
20260504213102 7 0 0.0 4.8 0.00 0.03 0.03 85 1018.0
20260504212537 7 141 1.6 4.8 0.00 0.03 0.03 85 1018.1
20260504212038 7 0 0.0 3.2 0.00 0.03 0.03 83 1018.0
20260504211543 7 0 0.0 3.2 0.00 0.03 0.03 84 1018.1
20260504211036 7 0 0.0 3.2 0.00 0.03 0.03 85 1018.2
20260504210539 7 0 0.0 3.2 0.00 0.03 0.03 82 1018.2
20260504210047 7 0 0.0 3.2 0.00 0.03 0.03 81 1018.2
20260504205536 7 0 0.0 3.2 0.00 0.03 0.03 81 1018.4
20260504205038 7 98 0.0 3.2 0.00 0.03 0.03 84 1018.4
20260504204548 7 0 0.0 3.2 0.00 0.03 0.03 85 1018.4
20260504204036 7 98 0.0 4.8 0.00 0.03 0.03 83 1018.5
20260504203536 7 0 0.0 4.8 0.00 0.03 0.03 85 1018.6
20260504203059 7 98 1.6 4.8 0.00 0.03 0.03 87 1018.6
20260504202536 7 0 0.0 4.8 0.00 0.03 0.03 86 1018.6
20260504202036 7 0 0.0 4.8 0.00 0.03 0.03 86 1018.6
20260504201543 7 0 0.0 3.2 0.00 0.03 0.03 86 1018.6
20260504201037 7 0 0.0 3.2 0.00 0.03 0.03 86 1018.6
20260504200537 7 0 0.0 1.6 0.00 0.03 0.03 85 1018.5
20260504200046 7 0 0.0 3.2 0.00 0.03 0.03 85 1018.5
20260504195535 7 0 0.0 4.8 0.00 0.03 0.03 85 1018.4
20260504195039 7 0 0.0 4.8 0.00 0.03 0.03 85 1018.4
20260504194556 7 0 1.6 4.8 0.00 0.03 0.03 85 1018.3
20260504194036 7 119 1.6 4.8 0.00 0.03 0.03 84 1018.4
20260504193536 7 119 1.6 4.8 0.00 0.03 0.03 81 1018.3
20260504193058 7 0 0.0 3.2 0.00 0.03 0.03 82 1018.3
20260504192537 7 0 0.0 4.8 0.00 0.03 0.03 81 1018.2
20260504192036 7 0 0.0 6.4 0.00 0.03 0.03 81 1018.2
20260504191549 7 0 0.0 6.4 0.03 0.03 0.03 81 1018.1
20260504191036 7 33 1.6 6.4 0.03 0.03 0.03 81 1018.2
20260504190536 7 41 0.0 4.8 0.03 0.03 0.03 82 1018.2
20260504190055 8 57 1.6 6.4 0.03 0.03 0.03 81 1018.3
20260504185535 8 0 0.0 6.4 0.03 0.03 0.03 82 1018.2
20260504185035 8 48 0.0 6.4 0.03 0.03 0.03 82 1018.3
20260504184543 8 44 1.6 4.8 0.03 0.03 0.03 81 1018.2
20260504184036 8 49 1.6 4.8 0.03 0.03 0.03 81 1018.3
20260504183539 8 31 0.0 4.8 0.03 0.03 0.03 79 1018.2
20260504183042 8 25 1.6 4.8 0.00 0.00 0.00 80 1018.2
20260504182539 9 63 0.0 4.8 0.00 0.00 0.00 80 1018.2
20260504182036 9 0 1.6 4.8 0.00 0.00 0.00 80 1018.1
20260504181544 10 29 0.0 4.8 0.00 0.00 0.00 78 1018.0
20260504181036 10 0 0.0 4.8 0.00 0.00 0.00 74 1017.9
20260504180535 10 28 0.0 4.8 0.00 0.00 0.00 76 1017.9
20260504180051 10 0 0.0 4.8 0.00 0.00 0.00 75 1017.7
20260504175537 10 0 1.6 4.8 0.00 0.00 0.00 75 1017.9
20260504175040 10 0 0.0 3.2 0.00 0.00 0.00 74 1017.8
20260504174545 10 130 0.0 3.2 0.00 0.00 0.00 74 1017.8
20260504174036 10 130 0.0 1.6 0.00 0.00 0.00 74 1017.7
20260504173535 10 0 0.0 4.8 0.00 0.00 0.00 73 1017.7
20260504173049 10 0 1.6 4.8 0.00 0.00 0.00 74 1017.6
20260504172536 10 130 1.6 3.2 0.00 0.00 0.00 74 1017.4
20260504172037 10 0 0.0 1.6 0.00 0.00 0.00 73 1017.4
20260504171542 10 0.0 0.0 0.00 0.00 0.00 71 1017.3
20260504171037 10 0.0 0.0 0.00 0.00 0.00 71 1017.4
20260504170537 10 0 0.0 1.6 0.00 0.00 0.00 71 1017.3
20260504151034 12 69 1.6 6.4 0.00 0.00 0.00 64 1017.7
20260504150534 12 38 0.0 4.8 0.00 0.00 0.00 62 1017.7
20260504141033 12 332 0.0 8.0 0.00 0.00 0.00 56 1017.9
20260504140534 12 0 0.0 8.0 0.00 0.00 0.00 55 1018.1
20260504130537 12 55 0.0 4.8 0.00 0.00 0.00 60 1018.5
20260504110538 13 0 0.0 6.4 0.00 0.00 0.00 55 1018.1
20260504110107 13 0 0.0 4.8 0.00 0.00 0.00 56 1018.2